Weather History for Morgantown, WV

Change the Weather History Date:

Monday, February 24, 2014

  Actual Average Record
Temperature  
Mean Temperature 29 °F 36 °F  
Max Temperature 34 °F 45 °F 75 °F (1975)
Min Temperature 23 °F 27 °F 2 °F (1967)
Degree Days  
Heating Degree Days 36 29  
Month to date heating degree days 829 749  
Since 1 July heating degree days 3947 3776  
Cooling Degree Days 0 0  
Month to date cooling degree days 0 0  
Year to date cooling degree days 0 0  
Moisture  
Dew Point 13 °F    
Average Humidity 62    
Maximum Humidity 92    
Minimum Humidity 32    
Precipitation  
Precipitation 0.00 in 0.09 in 0.73 in (1962)
Month to date precipitation 3.31 2.20  
Year to date precipitation 5.13 5.01  
Sea Level Pressure  
Sea Level Pressure 30.13 in    
Wind  
Wind Speed 7 mph (WSW)    
Max Wind Speed 16 mph    
Max Gust Speed 26 mph    
Visibility 10 miles    
Events      
T = Trace of Precipitation, MM = Missing Value Source: NWS Daily Summary

Daily Weather History Graph

Daily Weather History Graph

Search for Another Location

Airport:

Trip Planner

Search our weather history database for the weather conditions in past years. The results will help you decide how hot, cold, wet, or windy it might be!

Date:

Astronomy

Feb. 24, 2014 Rise Set
Actual Time 6:59 AM EST 6:06 PM EST
Civil Twilight 6:32 AM EST 6:33 PM EST
Nautical Twilight 6:01 AM EST 7:04 PM EST
Astronomical Twilight 5:30 AM EST 7:36 PM EST
Moon 2:56 AM EST (2/24) 1:06 PM EST (2/24)
Length of Visible Light 12h 00m
Length of Day
11h 06m
Waning Crescent, 28% of the Moon is Illuminated
Feb 24
Waning Crescent
Mar 1
New
Mar 8
First Quarter
Mar 16
Full
Mar 23
Last Quarter

Hourly Weather History & Observations

Time (EST) Temp. Windchill Dew Point Humidity Pressure Visibility Wind Dir Wind Speed Gust Speed Precip Events Conditions
12:10 AM 30.9 °F 26.2 °F 30.0 °F 96% 30.03 in 10.0 mi SW 4.6 mph - N/A   Mostly Cloudy
12:53 AM 30.9 °F 26.2 °F 27.0 °F 85% 30.07 in 10.0 mi West 4.6 mph - N/A   Mostly Cloudy
1:05 AM 30.0 °F 21.7 °F 24.1 °F 79% 30.05 in 10.0 mi West 9.2 mph - N/A   Overcast
1:53 AM 28.0 °F 21.7 °F 19.9 °F 72% 30.09 in 10.0 mi WNW 5.8 mph - N/A   Partly Cloudy
2:53 AM 27.0 °F 20.5 °F 17.1 °F 66% 30.08 in 10.0 mi West 5.8 mph - N/A   Overcast
3:53 AM 26.1 °F 17.6 °F 15.1 °F 63% 30.09 in 10.0 mi West 8.1 mph - N/A   Overcast
4:53 AM 24.1 °F - 12.9 °F 62% 30.11 in 10.0 mi Calm Calm - N/A   Clear
5:53 AM 24.1 °F 19.7 °F 12.9 °F 62% 30.11 in 10.0 mi Variable 3.5 mph - N/A   Clear
6:53 AM 24.1 °F 19.7 °F 14.0 °F 65% 30.11 in 10.0 mi SW 3.5 mph - N/A   Mostly Cloudy
7:53 AM 24.1 °F 16.0 °F 15.1 °F 69% 30.13 in 10.0 mi SW 6.9 mph - N/A   Scattered Clouds
8:53 AM 25.0 °F 19.3 °F 15.1 °F 66% 30.14 in 10.0 mi Variable 4.6 mph - N/A   Mostly Cloudy
9:53 AM 26.1 °F 15.6 °F 14.0 °F 60% 30.15 in 10.0 mi WSW 11.5 mph 17.3 mph N/A   Partly Cloudy
10:53 AM 28.0 °F 18.1 °F 12.9 °F 53% 30.15 in 10.0 mi WSW 11.5 mph 20.7 mph N/A   Scattered Clouds
11:53 AM 28.9 °F 21.1 °F 12.0 °F 49% 30.14 in 10.0 mi WSW 8.1 mph - N/A   Scattered Clouds
12:53 PM 30.0 °F 20.5 °F 12.0 °F 47% 30.12 in 10.0 mi West 11.5 mph 19.6 mph N/A   Mostly Cloudy
1:53 PM 32.0 °F 24.8 °F 12.0 °F 44% 30.13 in 10.0 mi SW 8.1 mph 19.6 mph N/A   Scattered Clouds
2:53 PM 32.0 °F 22.5 °F 10.9 °F 42% 30.13 in 10.0 mi WSW 12.7 mph 25.3 mph N/A   Mostly Cloudy
3:53 PM 34.0 °F 27.2 °F 9.0 °F 35% 30.14 in 10.0 mi West 8.1 mph 20.7 mph N/A   Mostly Cloudy
4:53 PM 33.1 °F 23.4 °F 7.0 °F 34% 30.15 in 10.0 mi West 13.8 mph 19.6 mph N/A   Scattered Clouds
5:53 PM 32.0 °F 23.0 °F 6.1 °F 34% 30.16 in 10.0 mi West 11.5 mph - N/A   Clear
6:53 PM 30.0 °F 24.1 °F 6.1 °F 36% 30.19 in 10.0 mi West 5.8 mph - N/A   Clear
7:53 PM 30.0 °F 23.2 °F 6.1 °F 36% 30.20 in 10.0 mi Variable 6.9 mph - N/A   Clear
8:53 PM 28.9 °F 23.9 °F 6.1 °F 38% 30.19 in 10.0 mi Variable 4.6 mph - N/A   Clear
9:53 PM 28.0 °F 22.8 °F 7.0 °F 41% 30.19 in 10.0 mi Variable 4.6 mph - N/A   Clear
10:53 PM 26.1 °F 21.9 °F 8.1 °F 47% 30.19 in 10.0 mi SW 3.5 mph - N/A   Clear
11:53 PM 24.1 °F 19.7 °F 12.0 °F 60% 30.16 in 10.0 mi SSW 3.5 mph - N/A   Clear